Regional Weather Roundup
Issued by NWS

Home | Current Version | Previous Version | Graphics & Text | Print | Product List | Glossary Off
Versions: 1 2 3 4 5 6 7 8 9 10 11 12 13 14 15 16 17 18 19 20 21 22 23 24 25 26 27 28 29 30 31 32 33 34 35 36 37 38 39 40 41 42 43 44 45 46 47 48 49 50

000
ASUS43 KBIS 260431
RWRND
NORTH DAKOTA REGIONAL WEATHER ROUNDUP
NATIONAL WEATHER SERVICE EASTERN NORTH DAKOTA/GRAND FORKS ND
1100 PM CDT WED APR 25 2018

  NOTE: "FAIR" INDICATES FEW OR NO CLOUDS BELOW 12,000 FEET WITH NO
  SIGNIFICANT WEATHER AND/OR OBSTRUCTIONS TO VISIBILITY.

NDZ001>003-009>011-017-260500-
...NORTHWEST NORTH DAKOTA...

CITY           SKY/WX    TMP DP  RH WIND       PRES   REMARKS
WILLISTON      FAIR      52  36  54 N16       30.02R
MINOT          FAIR      53  36  52 NW18      29.91R
MINOT AFB      FAIR      53  35  50 N16G22    29.90R
$$

NDZ018>021-031>035-040>046-260500-
...SOUTHWEST NORTH DAKOTA...

CITY           SKY/WX    TMP DP  RH WIND       PRES   REMARKS
BISMARCK       FAIR      55  31  39 NW8       29.82R
DICKINSON      FAIR      52  31  44 N14       29.94R
GARRISON         N/A     51  36  56 N21       29.88R
HETTINGER      FAIR      51  31  46 NW16      29.91R
$$

NDZ004>008-012>016-024-026-027-054-260500-
...NORTHEAST NORTH DAKOTA...

CITY           SKY/WX    TMP DP  RH WIND       PRES   REMARKS
GRAND FORKS    MOCLDY    47  40  76 S10       29.74F
GRAND FORKS AF FAIR      51  36  56 S7        29.73F
DEVILS LAKE    FAIR      52  33  48 N28G35    29.80R
$$

NDZ022-023-025-028>030-036>039-047>053-260500-
...SOUTHEAST NORTH DAKOTA...

CITY           SKY/WX    TMP DP  RH WIND       PRES   REMARKS
JAMESTOWN      FAIR      49  32  52 S10       29.76F
FARGO          FAIR      53  36  52 S17       29.80F
WAHPETON       FAIR      46  36  66 S15       29.85F
$$



USA.gov is the U.S. government's official web portal to all federal, state and local government web resources and services.